Location: Ku?niki
(51.4449°N, 17.8974°E)
Time: 03:47:44
(UTC+00:00)

SPOT 3 Rocket - Pass Details

Date: 18 September 2020
Orbit: 779 x 794 km, 98.8° (Epoch: 22 October)

Event Time Altitude Azimuth Distance (km) Brightness Sun altitude
Exits shadow 18:22:59 19° 133° (SE) 1,802 4.9 -14.2°
Maximum altitude 18:26:28 48° 67° (ENE) 1,014 3.8 -14.7°
Drops below altitude 10° 18:31:25 10° 354° (N) 2,347 6.4 -15.4°
Sets 18:33:48 0° 349° (NNW) 3,281 7.3 -15.7°
